GFSNGP_con_lsi_000.txt.gz
Lid_Strength_Index
8 7 7 8 8 8 9 8 10 9 8 7 5 5 5 4 4 4 4 3 3 3 2 2 2 1 1 1 0 0 0 1 1 -0 -0 -0 -0 -1 -1 -1 -0 0 -0 -0
9 8 8 9 8 8 8 8 8 8 8 5 4 4 5 5 5 4 4 3 3 3 2 2 2 1 1 1 0 0 0 0 0 -0 -0 -0 -0 -0 -0 -0 -0 0 0 -0
11 8 8 11 8 8 7 7 7 9 7 5 5 5 5 5 4 4 4 3 3 3 2 2 1 1 1 1 0 0 0 0 0 0 0 0 -0 -0 -0 -0 -1 -1 -1 -1
10 9 14 8 6 6 7 6 6 6 5 5 4 4 4 3 4 4 3 3 3 2 2 1 1 1 1 1 1 1 1 1 0 1 0 0 -0 -0 -0 -0 -0 -0 -0 -1
12 12 9 8 7 7 7 8 5 6 5 4 4 4 4 3 3 3 3 2 2 2 1 1 1 1 1 1 1 1 1 1 0 0 0 0 0 0 -0 -0 -0 -0 -0 -0
10 14 15 8 6 5 5 9 5 5 5 5 4 7 5 3 3 2 2 2 2 1 1 1 1 1 1 1 1 1 1 1 0 -0 0 0 -0 -0 -0 -0 -0 -0 -0 -1
12 13 10 7 5 5 11 8 4 4 4 4 5 5 3 2 3 2 2 2 1 1 2 2 1 1 1 1 1 1 0 0 0 -0 -0 -0 -0 -0 -0 -0 -0 -0 -0 -1
10 12 13 5 6 8 5 5 4 4 4 4 4 3 3 3 3 2 2 2 2 2 2 1 1 1 1 2 1 0 0 0 0 -0 -0 0 -0 -0 -0 -0 0 0 0 0
9 9 6 5 5 4 3 4 4 4 4 4 4 4 3 3 3 2 2 2 2 2 2 1 1 1 2 1 0 0 0 0 0 0 -0 -0 0 0 1 0 1 1 1 1
8 6 6 5 4 4 3 4 3 3 3 3 4 3 3 3 3 3 2 2 2 2 2 2 1 1 1 1 0 1 1 1 0 1 0 -0 0 0 0 1 1 1 1 1
7 6 5 4 4 3 4 3 3 3 3 3 3 3 3 3 3 2 2 2 2 2 2 2 1 1 1 1 0 1 1 1 1 1 1 1 0 0 0 -0 1 1 1 0
9 5 5 5 3 3 4 4 3 3 3 3 3 3 3 3 2 2 2 2 2 2 2 2 1 1 1 0 0 1 1 1 1 1 1 1 1 1 6 6 7 7 7 3
6 5 5 4 4 3 3 3 3 3 3 3 3 2 2 2 2 3 2 2 2 2 2 1 1 1 1 1 0 1 1 1 1 1 1 1 1 1 1 3 8 9 9 9
4 4 5 4 4 3 3 3 3 3 2 2 2 2 2 2 2 2 2 2 1 1 1 1 1 1 1 0 0 1 1 5 1 1 1 1 1 1 1 1 1 1 9 8
4 4 4 4 3 4 3 3 3 4 3 3 2 2 2 3 3 2 2 2 1 1 1 1 1 1 0 0 1 1 1 1 1 1 1 1 1 1 1 1 2 2 1 6
4 5 4 4 4 4 3 3 3 3 3 3 3 3 2 2 2 2 2 2 2 2 2 1 1 1 0 0 1 1 1 5 3 1 1 1 1 1 1 1 1 1 1 1
5 6 5 4 4 4 4 3 3 3 3 3 3 2 2 2 2 2 2 2 1 2 1 1 1 1 0 0 0 1 1 1 5 1 1 1 1 1 1 1 1 1 1 2
4 4 3 4 4 4 4 3 3 3 3 2 2 2 3 3 3 2 2 2 2 2 2 1 1 1 0 0 0 1 1 1 1 1 1 1 1 1 1 1 1 1 1 3
4 4 4 4 3 3 3 3 3 2 2 2 2 3 2 2 2 2 2 2 2 3 2 1 6 4 1 1 2 1 1 1 1 1 1 4 2 1 1 1 1 1 2 3
4 3 3 3 3 3 3 3 2 3 2 2 2 3 3 3 2 2 2 3 2 2 1 1 1 1 1 2 8 1 1 1 1 1 1 1 1 1 1 4 2 3 3 2
4 4 3 3 4 3 3 3 3 4 3 2 3 3 3 2 2 2 3 3 2 2 1 5 1 1 0 2 3 1 1 1 1 1 1 1 2 1 2 2 3 3 3 4
5 4 4 4 4 4 3 3 3 3 3 3 3 3 3 3 2 2 2 2 1 13 2 1 1 9 3 11 1 1 2 1 1 1 2 2 3 3 3 3 4 5 5 7
6 4 4 5 4 4 4 3 3 3 3 2 2 2 2 2 2 2 3 2 1 6 1 2 11 13 13 0 1 1 1 1 2 2 3 3 3 4 5 5 6 7 9 10
6 6 6 5 4 4 5 4 3 3 2 2 2 2 2 2 2 1 2 9 11 8 2 4 7 12 9 1 1 1 1 2 2 3 3 7 5 5 6 7 8 8 9 9
6 5 5 5 5 5 4 4 4 3 2 2 2 1 1 1 2 2 1 2 10 5 2 14 13 12 1 1 1 1 2 2 2 3 3 4 4 6 8 7 7 7 7 8
5 5 5 5 5 5 4 4 4 3 2 2 2 1 1 1 2 2 2 4 1 6 1 1 1 1 3 2 2 2 2 3 4 3 4 4 5 6 6 6 7 7 7 8
4 6 4 4 4 4 4 4 3 3 3 2 3 2 1 2 3 3 6 2 1 2 2 3 3 5 3 3 4 4 3 3 6 3 3 4 5 5 6 7 7 7 8 8

GFSNGP_con_lsi_003.txt.gz
Lid_Strength_Index
8 7 7 8 8 8 8 8 10 9 8 7 5 5 4 4 4 4 4 3 3 3 2 2 2 1 1 1 1 1 1 0 0 -0 -0 -0 -0 -0 -1 -0 -0 -0 0 0
9 7 7 8 8 7 7 8 8 8 8 5 4 4 4 4 4 4 4 3 3 3 2 2 2 1 1 1 1 0 1 1 0 0 0 0 -0 -0 -0 -0 -0 -0 -0 0
11 8 8 10 8 8 7 7 7 9 7 5 5 5 4 4 4 4 4 3 3 3 2 2 1 1 1 1 0 0 1 1 0 0 0 0 0 0 -0 -0 -1 -1 -0 -0
10 9 14 8 5 6 7 6 6 6 5 5 4 4 3 3 3 3 3 3 3 2 2 1 1 1 1 1 1 1 1 1 1 0 1 0 0 0 -0 -0 -0 -0 -0 -0
12 12 9 8 7 7 7 8 5 6 5 5 4 4 4 3 3 3 2 2 2 2 2 1 1 1 1 1 1 1 1 1 0 1 1 0 1 0 0 0 0 -0 -0 -0
10 13 13 8 6 4 5 9 5 5 5 5 4 7 5 3 2 2 2 2 2 1 1 1 1 1 1 1 1 1 1 1 0 0 0 0 0 0 0 -0 0 0 0 -1
10 12 9 6 5 4 10 8 4 4 4 4 5 4 3 2 2 2 2 2 1 1 2 2 1 1 1 1 1 1 0 0 0 -0 0 -0 0 -0 0 0 0 0 0 -0
10 11 12 5 5 8 5 4 4 4 4 4 3 3 3 3 2 2 2 2 2 2 2 1 1 1 1 2 1 0 0 0 0 0 0 0 0 0 0 0 0 1 1 0
8 9 5 4 4 3 3 4 4 3 3 3 3 3 3 3 3 2 2 2 2 2 2 1 1 1 2 1 1 1 1 1 0 0 0 -0 1 1 1 1 1 1 1 1
8 6 6 4 3 3 3 3 3 3 3 3 3 3 3 3 3 2 2 2 2 2 2 2 1 1 1 1 0 1 1 1 0 1 1 0 0 1 1 1 1 1 1 1
7 6 5 4 4 4 3 3 3 3 3 3 3 3 3 3 3 2 2 2 2 2 2 2 1 1 1 1 1 1 1 1 1 1 1 1 0 1 1 0 1 1 1 1
8 5 5 5 3 3 4 4 3 3 3 2 2 3 2 3 2 2 2 2 2 2 2 2 1 1 1 1 1 1 1 1 1 1 1 1 1 1 6 6 6 8 8 4
6 4 5 4 3 3 4 3 3 3 3 3 2 2 2 2 2 3 2 2 2 2 2 1 1 1 1 1 1 1 1 1 1 2 1 1 1 1 2 3 8 8 10 8
3 4 5 4 4 3 3 3 3 2 2 2 2 2 2 2 2 2 2 2 1 1 1 1 1 1 1 0 1 1 1 6 1 1 1 1 1 1 1 1 2 1 8 5
4 3 3 3 3 3 3 3 3 3 3 3 2 2 2 2 2 2 2 1 1 1 1 1 2 1 1 1 1 1 1 1 1 1 1 1 1 1 1 1 1 1 1 7
4 3 3 4 4 3 3 3 3 3 3 3 2 2 2 2 2 2 1 1 2 2 2 1 1 1 1 0 1 1 1 4 3 1 1 1 1 1 1 1 1 1 2 2
5 5 4 4 4 4 3 3 3 3 3 3 2 2 2 2 2 2 2 1 1 1 1 1 1 1 1 0 1 1 1 1 5 1 1 1 1 1 1 1 2 1 1 2
3 3 3 3 3 3 3 3 3 2 3 2 2 2 2 2 3 2 2 1 1 2 1 1 1 1 0 0 1 1 1 1 1 1 1 1 1 1 1 1 1 1 2 6
3 3 3 3 3 3 3 3 2 2 2 2 2 2 2 2 2 2 2 2 2 2 2 1 8 3 1 2 2 1 1 1 1 1 1 3 1 1 1 1 2 2 2 3
3 3 3 3 2 3 3 2 2 2 2 2 2 2 3 2 2 2 2 2 2 2 1 1 1 1 1 1 6 1 1 1 1 1 1 1 1 2 2 5 2 1 1 1
4 4 3 3 3 3 2 2 2 3 2 2 2 3 2 2 2 2 2 3 2 2 1 6 1 1 1 2 2 1 1 1 1 1 1 2 1 1 2 1 1 2 2 3
4 4 3 3 3 3 3 3 3 3 3 3 3 2 2 3 2 2 2 2 1 12 2 1 1 9 2 10 1 1 1 1 1 1 1 1 1 1 2 1 2 2 2 3
5 4 4 4 4 4 3 3 3 3 3 3 3 3 3 2 2 3 4 2 1 6 1 1 10 12 11 1 1 1 1 1 1 1 1 1 1 1 1 2 3 4 4 4
5 5 4 3 3 3 4 3 3 2 2 2 3 3 2 2 2 1 2 9 11 6 2 3 6 11 12 1 1 1 1 1 1 1 1 7 3 3 4 4 4 5 7 9
5 5 4 4 4 3 3 3 3 3 3 3 3 2 2 1 2 2 1 1 11 6 2 12 11 11 1 1 1 1 1 1 1 1 2 2 3 5 5 6 7 8 8 8
5 5 5 5 4 3 3 3 3 3 3 3 3 2 1 1 1 1 1 3 1 5 1 1 1 1 1 1 1 1 1 1 1 2 3 3 3 5 5 6 7 8 9 10
5 7 5 5 4 4 3 4 4 4 4 3 3 2 1 1 1 2 5 1 1 1 1 1 1 3 1 1 1 1 1 1 4 2 2 3 5 5 6 7 7 8 8 9

GFSNGP_con_lsi_006.txt.gz
Lid_Strength_Index
8 8 8 8 8 8 9 9 11 9 9 7 6 6 5 5 5 5 4 4 4 3 3 2 2 2 2 1 1 1 1 1 1 1 1 1 1 1 1 1 1 1 1 0
9 8 8 9 8 8 8 8 8 8 9 5 5 5 5 5 5 5 4 4 3 3 3 3 2 2 2 2 1 1 1 2 1 1 1 1 1 1 1 1 1 1 1 1
12 8 9 11 9 8 8 7 7 9 7 5 6 5 5 5 5 5 4 4 3 3 3 2 2 2 2 2 1 1 1 1 1 1 1 1 1 1 1 1 1 1 1 1
12 10 15 8 6 6 7 7 6 6 6 5 5 4 4 4 4 4 4 3 3 3 3 2 2 2 1 1 1 1 1 1 1 1 1 1 1 1 1 1 1 1 1 1
13 13 10 8 7 7 8 8 6 6 6 5 4 4 4 3 3 3 3 3 3 2 2 2 2 1 1 2 1 1 2 1 1 1 1 1 2 2 1 1 1 1 1 1
12 14 15 9 6 5 5 10 5 5 5 5 5 7 6 3 3 3 3 2 3 2 2 2 2 1 2 2 2 2 1 1 1 1 1 1 1 1 1 1 1 1 1 1
12 13 10 6 5 5 11 9 5 5 5 5 6 5 4 3 3 3 3 2 2 2 2 2 2 2 2 2 2 1 1 1 1 1 1 1 1 1 1 1 1 1 1 1
11 13 13 5 6 8 6 4 4 5 4 5 4 4 3 3 3 3 3 2 2 3 3 2 1 2 2 2 1 1 1 1 1 1 1 1 1 1 1 1 2 2 2 2
10 10 5 5 5 5 4 5 4 4 4 4 4 4 3 3 3 3 2 3 2 2 2 2 2 2 2 2 1 1 1 1 1 1 1 1 1 2 2 2 2 2 2 2
10 7 6 5 4 4 3 4 3 3 3 3 4 3 3 3 3 3 2 3 2 2 3 3 2 2 1 1 1 1 1 1 1 1 1 1 1 1 2 2 2 2 2 2
9 7 6 5 5 4 4 3 3 3 3 3 3 3 3 3 3 3 2 2 2 2 3 3 2 2 1 1 1 2 2 1 2 1 1 2 1 1 1 1 1 2 2 1
10 7 8 6 5 5 4 4 4 3 3 3 3 3 3 3 3 2 3 2 2 2 2 2 2 2 1 1 1 1 2 2 2 2 1 1 2 2 8 7 7 8 8 3
8 6 6 6 4 4 5 4 4 5 3 3 3 3 3 3 2 3 2 2 2 2 2 2 2 2 1 1 1 1 2 2 2 2 2 2 2 2 2 5 9 9 8 8
7 8 7 6 5 4 4 3 4 4 4 3 3 2 2 3 3 3 2 2 2 2 2 2 2 2 1 1 1 1 1 6 2 1 2 2 2 2 2 2 2 2 7 6
7 7 6 5 4 4 3 3 4 5 4 3 3 3 2 3 3 2 2 1 1 2 2 2 2 2 1 1 1 1 2 2 1 1 1 2 1 1 1 2 2 2 3 6
7 7 7 7 5 5 4 4 4 4 3 3 3 3 2 2 2 2 2 1 2 2 2 2 2 1 1 1 1 1 1 5 3 1 1 1 2 2 2 2 2 2 2 4
8 7 7 6 5 5 5 5 4 4 4 3 3 2 2 2 2 2 2 1 1 2 1 1 1 1 1 1 1 1 1 1 5 2 2 2 2 2 2 2 3 2 3 4
5 5 5 5 5 5 5 5 5 4 3 3 3 3 2 2 3 2 2 2 2 1 1 2 1 1 1 1 1 1 1 1 2 2 2 2 2 2 2 2 2 3 3 6
5 5 5 5 5 5 5 4 4 3 3 3 2 3 3 2 2 2 2 2 2 3 2 1 7 3 1 2 2 1 1 2 2 2 2 5 2 2 2 2 2 2 3 7
4 4 4 4 4 4 4 3 3 3 2 2 2 3 3 2 2 2 2 3 2 2 1 1 1 1 1 1 6 1 1 1 2 2 2 2 2 2 2 5 2 2 4 5
3 3 4 4 4 3 3 2 3 3 3 2 3 3 3 2 2 2 3 3 2 2 2 6 2 1 1 2 2 1 1 1 2 2 2 2 2 2 2 2 2 2 3 4
4 4 4 3 3 3 2 2 2 2 3 3 3 3 3 3 2 2 2 2 2 13 2 1 1 12 5 11 1 1 1 1 2 2 2 2 2 2 2 2 2 2 2 4
4 4 4 4 4 3 3 3 3 2 3 3 3 3 4 4 3 3 4 2 2 7 1 2 13 14 13 2 1 1 1 1 2 2 2 2 2 2 2 2 2 3 4 4
5 4 4 3 4 4 5 4 3 3 3 3 3 3 3 4 3 3 3 8 11 7 3 4 8 13 16 1 1 1 1 1 1 2 3 6 2 2 2 3 4 4 6 7
6 5 5 5 5 4 4 4 4 3 3 3 3 2 2 2 3 2 2 3 11 5 2 11 11 12 4 1 1 1 1 1 1 1 2 2 3 3 4 5 6 7 8 8
5 5 5 5 4 4 4 3 4 3 3 4 3 2 2 2 2 2 2 4 1 6 1 1 1 1 1 1 1 1 1 2 2 1 2 2 3 4 6 6 8 8 8 9
4 5 4 4 4 4 4 5 5 5 4 3 4 3 2 2 3 3 5 2 1 1 1 1 1 3 1 1 1 1 1 1 4 1 2 2 4 3 5 7 7 8 8 9

GFSNGP_con_lsi_009.txt.gz
Lid_Strength_Index
10 10 10 9 9 9 10 11 12 11 11 9 8 8 7 6 6 6 6 5 5 5 5 5 4 4 3 3 4 3 2 3 3 2 2 2 2 1 1 1 1 1 2 1
11 9 10 10 9 9 9 9 10 10 10 8 6 7 7 6 6 6 6 5 4 4 5 5 3 4 3 3 4 3 2 2 2 3 2 2 3 2 1 2 1 2 3 3
13 10 11 13 10 9 9 9 9 11 10 8 8 7 7 6 6 6 6 5 4 4 4 5 3 3 3 3 4 4 2 2 2 3 2 2 2 2 3 3 3 3 3 4
12 12 16 11 8 8 9 8 8 9 8 7 7 7 5 5 5 5 5 5 4 4 4 5 3 3 3 3 4 4 3 2 2 2 2 2 2 2 3 2 2 3 3 5
14 14 12 10 9 9 10 10 7 8 7 6 6 7 7 4 4 5 5 4 4 3 4 4 3 2 3 4 4 4 3 3 2 2 3 2 2 2 2 3 2 2 3 5
14 16 16 11 8 7 8 11 7 7 8 8 7 9 9 6 4 4 4 4 4 3 4 4 4 3 3 3 4 5 3 2 2 2 2 3 2 2 2 2 3 1 2 4
15 15 13 8 7 7 12 11 7 7 7 7 8 8 6 5 5 4 3 3 3 3 4 4 4 3 3 3 4 4 2 2 3 2 2 2 2 2 2 2 2 3 2 3
14 16 16 7 8 11 9 8 6 6 6 6 6 5 5 5 4 4 4 3 3 3 4 4 3 3 3 3 3 3 2 2 3 2 1 1 2 2 2 3 3 3 3 3
14 12 8 7 7 6 6 6 6 6 6 5 5 5 5 5 4 4 4 3 3 3 4 4 3 4 3 3 2 3 3 3 3 2 2 1 2 3 3 3 3 4 3 4
12 10 9 7 7 7 5 6 6 5 5 5 5 5 5 5 4 4 4 3 3 3 4 5 4 4 3 2 2 2 3 3 2 3 2 2 2 2 2 3 4 5 4 4
11 10 9 8 8 7 6 6 5 5 5 5 5 5 4 5 5 4 4 3 3 3 4 4 4 3 3 2 2 3 3 2 2 3 2 2 2 2 2 3 3 4 4 4
13 10 10 10 9 7 6 6 6 5 5 4 4 4 4 4 4 4 5 3 3 3 3 3 4 3 3 3 2 3 3 2 2 3 2 2 3 3 10 8 8 7 7 4
11 8 8 8 7 7 8 5 5 5 5 5 4 4 4 4 4 4 4 3 3 3 3 3 3 3 3 3 3 3 3 3 2 3 2 2 2 3 4 8 11 10 9 9
8 8 9 8 9 8 8 4 5 4 4 4 4 4 4 4 4 4 4 3 3 3 3 2 2 3 2 3 3 3 3 6 2 2 2 2 2 2 3 5 6 7 9 9
8 7 7 8 8 8 8 7 5 6 5 5 4 4 4 4 4 4 3 3 3 3 3 2 3 2 2 3 3 3 2 3 3 3 2 3 2 2 3 3 4 4 7 9
8 8 7 9 8 8 8 8 7 6 6 4 4 5 4 4 4 4 4 4 4 4 3 2 3 2 2 2 3 3 3 6 5 3 4 3 3 3 3 4 4 4 5 6
10 8 9 8 7 8 8 7 6 5 6 5 4 4 4 4 4 4 4 3 3 3 3 3 3 2 1 2 3 3 3 4 7 3 4 3 3 4 4 4 5 5 5 7
7 7 7 8 8 7 7 6 6 6 6 6 3 3 4 4 4 4 4 3 3 3 3 3 2 2 2 2 2 2 3 3 4 3 3 3 4 3 4 4 5 5 4 6
6 6 5 6 6 6 6 7 6 6 6 5 5 4 4 4 4 3 3 3 4 4 4 3 6 4 2 6 3 2 3 3 4 4 4 7 6 4 4 4 4 4 4 6
5 5 5 5 6 6 6 6 6 6 6 6 4 4 4 4 4 3 3 4 3 3 3 3 3 2 2 5 7 4 3 3 3 4 4 4 4 4 4 7 4 4 5 6
5 5 5 5 5 6 6 5 6 7 6 5 5 5 4 3 4 3 4 5 4 3 4 6 3 3 3 5 4 4 4 3 3 3 4 4 4 4 3 4 5 6 7 8
5 5 5 4 4 5 5 6 6 5 6 6 5 4 4 4 4 4 4 4 4 13 5 3 5 11 6 11 3 3 4 4 4 3 4 3 4 4 4 5 5 6 6 6
4 4 4 4 5 5 4 4 5 5 4 5 4 4 4 4 4 5 6 6 7 10 5 8 15 16 16 5 4 4 3 3 4 4 4 4 4 4 4 4 5 6 7 6
5 5 4 4 4 4 5 4 4 4 3 3 3 3 4 5 5 4 4 8 10 9 7 10 13 16 13 4 4 3 3 3 4 4 5 9 5 4 4 5 6 6 6 7
5 4 4 5 5 5 5 4 4 4 4 4 4 3 3 4 5 4 3 4 9 4 2 9 13 13 4 3 3 3 3 3 4 4 5 5 6 6 6 6 6 7 9 10
5 5 5 4 4 4 4 4 5 4 4 4 4 3 3 3 3 3 3 5 2 6 2 2 3 3 3 3 4 4 4 4 3 4 4 5 6 7 8 9 9 9 10 10
5 6 4 4 4 4 5 5 4 5 5 4 4 3 3 4 4 4 7 3 3 3 3 3 4 5 3 3 4 4 3 4 6 4 4 5 7 7 8 9 9 10 10 10

GFSNGP_con_lsi_012.txt.gz
Lid_Strength_Index
11 10 10 11 11 10 11 12 13 12 12 11 9 8 7 7 7 7 6 6 5 5 6 6 4 4 3 4 5 3 3 3 3 3 3 2 2 1 2 2 2 1 1 1
12 10 11 12 11 9 9 11 11 11 11 8 7 6 7 7 6 7 6 5 5 5 5 6 4 4 3 4 5 3 3 3 2 2 2 3 2 2 2 2 3 3 2 2
14 11 12 14 12 10 9 9 10 12 11 9 9 7 7 7 6 6 6 6 5 4 5 5 5 3 4 4 4 3 3 3 3 2 2 3 2 2 2 3 4 5 4 3
15 13 17 12 9 9 9 9 9 10 9 8 8 7 6 5 6 6 6 6 5 4 5 5 4 3 3 4 4 3 3 3 3 3 2 3 4 4 3 4 4 6 6 6
16 14 12 11 10 10 10 11 9 9 9 8 7 7 7 5 5 5 5 5 5 4 4 5 4 3 3 5 4 3 3 3 3 2 3 3 3 4 4 3 4 5 7 7
16 17 16 12 9 8 9 12 9 8 9 9 8 9 9 5 5 5 5 5 5 4 5 5 5 4 3 5 5 3 3 2 2 2 3 3 3 3 3 3 3 4 6 6
16 17 13 9 8 7 13 12 9 8 8 8 9 7 7 5 5 5 5 5 4 5 5 5 5 4 4 5 5 4 3 2 2 2 3 3 3 3 3 2 3 4 5 6
15 16 16 8 8 12 10 8 8 8 8 8 7 7 7 6 5 5 5 5 4 5 5 5 4 4 5 5 4 4 3 2 3 2 2 2 2 3 2 3 3 3 4 5
14 14 10 9 9 9 7 8 7 7 7 6 7 7 6 6 5 5 5 5 4 4 5 5 5 4 4 4 4 4 4 3 3 2 2 2 2 3 3 3 4 4 4 4
13 10 11 9 9 9 9 9 6 6 5 6 6 6 6 5 5 4 4 4 4 5 6 5 5 4 4 3 3 3 4 4 4 2 3 2 2 2 2 3 4 4 4 5
12 11 11 10 10 9 9 9 6 5 5 6 6 6 5 5 4 4 4 4 4 5 5 5 5 4 4 3 3 3 5 3 4 3 2 2 2 2 2 2 3 4 4 4
14 12 12 12 9 9 9 10 8 6 6 5 5 6 5 4 4 4 4 4 4 4 5 5 5 5 4 3 3 4 4 3 3 3 2 2 2 4 11 7 8 8 8 5
11 10 10 10 8 8 9 9 9 6 5 6 5 5 5 4 4 4 3 4 4 4 4 5 5 5 4 3 3 4 4 4 3 4 2 3 3 3 4 8 10 9 9 9
8 9 11 9 10 9 8 8 8 6 5 5 4 4 4 5 5 4 4 3 3 3 4 4 4 4 4 3 4 4 4 7 4 3 2 2 2 3 2 3 5 6 11 10
9 8 9 8 9 9 8 8 8 8 7 7 4 5 4 5 5 4 3 3 3 3 3 3 4 4 4 4 4 4 5 4 4 4 2 3 2 2 2 3 3 5 8 11
10 9 8 8 9 8 9 8 8 8 7 7 6 5 4 4 4 4 4 3 3 4 3 3 3 3 3 3 4 4 4 7 5 4 4 3 2 2 3 3 3 4 5 6
9 10 10 10 9 8 8 7 7 7 6 7 6 5 4 4 4 4 4 4 3 3 2 2 3 2 2 3 4 4 4 6 8 4 4 4 4 3 3 4 4 5 5 6
7 9 9 8 8 9 9 7 6 7 6 6 6 5 5 5 5 4 4 4 3 3 3 3 3 2 2 3 4 4 4 5 5 5 4 4 4 4 4 4 4 4 5 6
7 6 8 8 8 7 8 7 6 7 7 6 6 6 5 4 4 4 4 4 4 4 4 3 8 5 3 4 5 3 4 4 5 5 5 8 6 5 5 5 5 6 5 6
7 7 5 6 7 8 7 7 6 7 7 7 6 5 6 6 5 5 5 4 4 4 3 4 3 4 5 7 9 3 4 4 5 4 5 5 5 5 5 8 5 5 6 5
6 6 6 6 6 6 7 7 6 7 6 6 6 6 6 6 5 5 4 4 3 5 4 6 3 3 3 6 6 5 4 4 4 5 5 5 5 5 5 5 6 5 6 6
5 6 5 5 5 4 4 5 6 6 6 6 5 6 6 5 5 3 5 5 7 15 6 6 7 12 6 10 4 5 5 4 5 5 5 5 5 5 5 4 5 6 7 8
4 4 5 5 6 5 4 5 4 3 4 4 5 5 4 4 3 4 5 6 8 12 8 9 16 17 15 4 4 4 4 4 5 4 4 4 5 5 4 5 6 8 9 8
4 4 4 4 4 4 5 4 4 4 3 3 3 4 3 4 4 4 5 10 14 10 7 9 11 15 14 5 5 5 5 5 5 6 6 10 5 5 6 7 8 8 9 9
5 4 4 4 5 5 5 4 4 4 4 4 3 3 3 3 4 3 4 6 12 8 6 14 14 12 4 3 4 5 5 5 5 5 6 6 7 7 7 7 7 8 9 10
5 5 4 4 4 4 4 4 5 4 4 4 5 5 4 3 4 4 4 7 4 9 4 5 4 4 3 3 4 4 5 5 5 6 7 8 9 9 10 10 10 10 11 11
5 7 4 4 4 4 5 5 5 5 4 4 4 4 4 4 4 4 8 5 4 5 5 5 5 6 4 4 4 4 4 5 7 6 7 8 8 9 9 10 10 10 10 11

GFSNGP_con_lsi_015.txt.gz
Lid_Strength_Index
12 11 12 12 12 11 12 12 13 12 12 10 9 9 8 7 8 7 7 6 6 6 6 6 6 4 4 4 4 4 2 3 3 3 3 2 2 3 2 2 2 2 2 2
13 11 12 13 11 11 11 11 11 11 12 9 7 7 8 7 7 7 6 6 6 5 6 6 5 4 4 4 5 4 3 3 3 3 3 2 3 3 3 3 3 1 2 1
16 12 13 15 12 12 11 10 10 12 11 10 9 8 8 8 7 6 6 6 5 5 6 5 5 3 4 4 4 4 3 3 3 2 3 2 3 3 3 5 4 3 2 2
18 14 18 13 10 10 11 9 9 10 10 8 8 7 6 6 6 6 6 6 5 5 5 5 5 4 4 5 4 4 3 3 3 2 3 3 2 3 4 5 5 4 4 3
18 17 14 12 10 11 12 12 9 9 10 8 7 7 9 6 5 5 5 5 5 4 4 5 5 4 4 5 4 4 3 3 3 3 4 4 4 4 4 5 6 6 6 4
16 18 18 13 10 8 9 13 9 9 10 9 8 10 8 6 5 6 5 5 5 4 4 5 5 4 4 5 4 4 3 3 3 3 3 4 3 4 5 5 6 6 6 5
17 17 15 10 8 7 14 14 9 8 9 10 8 7 6 6 5 5 5 6 5 5 5 5 5 4 4 5 4 3 2 3 3 3 3 4 4 4 4 4 5 6 7 8
15 17 19 9 9 13 11 9 9 8 8 9 7 8 7 5 5 5 6 6 5 5 6 5 5 5 5 5 4 3 2 3 3 3 3 3 4 3 4 4 5 6 7 8
13 14 10 9 10 9 10 10 10 10 7 7 8 8 7 6 5 5 5 5 5 5 6 6 5 4 5 5 5 3 3 3 4 3 4 3 4 4 4 4 5 5 6 7
13 10 11 10 9 10 10 10 9 9 6 6 9 8 7 5 5 5 5 5 5 6 6 6 5 4 4 5 5 4 4 4 4 3 4 3 3 3 3 4 4 3 4 5
13 11 11 9 11 11 10 9 9 8 6 6 6 8 6 6 5 5 5 5 5 6 6 6 5 5 4 5 4 4 4 5 4 3 3 3 3 3 2 2 3 3 3 4
15 11 12 11 10 10 10 10 9 9 7 6 5 6 7 6 5 4 5 5 5 5 6 5 5 5 4 4 5 4 5 5 4 3 3 2 2 4 10 8 8 8 8 5
11 9 9 9 9 8 9 10 8 8 7 7 5 5 6 6 5 4 4 4 5 5 5 5 5 5 4 4 4 4 5 5 4 4 2 3 3 3 4 6 10 10 11 9
9 9 10 10 11 9 9 9 8 7 7 6 5 4 5 5 5 4 4 4 4 5 5 5 5 5 5 4 4 5 5 8 5 4 3 2 2 3 2 3 4 5 10 9
9 8 9 9 9 8 8 9 8 8 7 7 6 5 5 5 5 5 4 4 4 4 5 5 5 5 4 4 4 4 5 5 5 5 3 3 2 2 3 3 3 5 8 11
7 9 9 9 9 9 9 9 9 9 7 7 7 5 4 4 4 4 4 3 4 5 4 5 5 5 4 4 4 5 5 8 7 5 5 4 3 3 3 3 3 3 5 5
10 10 8 10 9 9 9 8 8 8 8 7 7 6 4 4 4 4 4 4 4 4 4 4 4 4 4 4 4 5 5 6 9 6 5 4 3 3 3 3 3 3 4 5
8 8 8 9 9 9 9 8 8 7 8 7 6 6 6 6 6 5 5 4 4 4 4 3 3 4 3 4 4 4 5 6 6 6 6 5 4 4 4 3 3 4 5 7
8 8 7 8 8 9 9 9 8 7 8 7 6 6 7 7 6 6 5 4 5 5 5 3 7 7 4 5 5 4 5 6 6 6 6 9 7 5 5 5 5 5 5 7
6 7 7 8 7 7 8 8 7 7 7 7 7 6 7 7 7 5 5 5 4 4 4 3 5 4 3 6 9 4 4 5 6 5 6 6 6 6 5 8 5 5 6 6
6 6 7 7 7 6 6 7 7 8 7 7 7 7 7 7 6 6 5 5 4 3 3 8 5 4 5 8 7 5 5 5 5 6 6 6 6 6 6 6 6 6 6 6
5 6 7 7 7 8 7 7 6 7 7 7 6 7 6 7 6 5 4 5 4 13 7 4 5 9 8 12 5 5 5 5 5 5 5 6 6 6 6 6 6 6 6 7
4 5 5 6 7 7 7 6 6 6 5 5 6 6 5 6 5 5 6 5 4 8 6 6 11 16 14 4 5 5 4 5 5 5 5 6 5 5 5 5 5 6 7 8
5 4 4 4 5 6 6 5 5 5 6 5 5 4 4 5 4 4 4 10 13 11 6 7 9 14 10 5 5 5 5 5 5 6 6 10 6 6 6 6 7 8 7 8
5 5 5 4 5 5 4 4 5 5 5 5 6 5 4 3 4 4 4 5 13 9 4 10 13 12 5 5 6 5 6 6 6 6 6 7 7 7 7 7 8 9 10 10
5 5 5 5 4 4 4 4 4 5 5 5 5 4 3 2 3 4 3 7 4 9 5 4 5 4 4 4 5 5 6 8 7 8 8 8 9 9 9 10 10 11 11 11
5 6 5 5 4 4 4 5 5 5 4 6 5 4 3 4 5 4 6 3 4 5 5 6 6 7 4 4 4 5 6 7 9 8 8 9 10 10 10 11 11 11 11 11

GFSNGP_con_lsi_021.txt.gz
Lid_Strength_Index
13 13 12 11 11 11 12 11 13 12 11 8 7 6 6 6 6 6 5 5 4 4 3 3 3 2 2 2 1 1 1 1 1 1 1 0 0 0 0 0 0 0 0 0
13 12 11 12 11 10 11 10 10 9 10 7 6 6 6 6 6 6 5 5 4 4 3 3 3 2 2 2 1 1 1 2 1 1 1 1 1 1 1 0 0 0 0 1
14 13 12 13 11 10 10 10 10 11 9 7 7 6 6 6 6 6 5 5 4 4 3 3 2 2 2 2 1 1 1 1 1 1 1 1 1 1 1 1 1 1 1 1
14 13 16 10 8 8 9 9 8 8 8 7 7 6 5 4 5 5 5 4 4 3 3 2 2 2 1 1 1 2 2 2 1 1 1 1 1 1 1 1 1 1 1 1
15 15 12 11 10 10 9 10 9 9 8 6 6 6 5 4 4 4 4 3 3 3 2 2 2 1 2 2 2 2 2 2 1 1 1 1 1 1 1 1 1 1 1 1
13 16 16 13 9 8 8 12 8 8 8 8 7 9 7 4 3 3 3 3 3 2 2 2 2 1 2 2 2 2 2 1 1 1 1 1 1 1 1 1 1 1 1 1
14 15 13 9 8 7 14 12 8 8 8 8 8 6 5 4 4 3 3 3 2 2 3 2 2 2 2 2 2 1 1 1 1 1 1 1 1 0 1 1 1 1 1 1
14 15 17 7 9 11 9 8 8 7 7 7 6 5 5 4 4 3 3 3 3 3 3 2 2 2 2 2 1 1 1 1 1 1 1 1 1 1 1 1 1 1 1 1
13 13 9 8 9 7 7 8 8 7 7 7 6 6 5 5 4 3 3 3 2 3 3 2 2 2 2 2 1 1 1 1 1 1 1 1 1 1 1 1 2 2 2 2
12 10 10 9 8 8 7 7 7 7 7 6 6 5 5 5 4 3 3 3 2 3 3 3 2 2 1 1 1 1 2 1 1 1 1 1 1 1 1 1 2 2 2 2
11 10 10 8 9 8 8 7 7 6 7 6 5 5 5 5 4 3 3 3 2 3 3 3 2 2 1 1 1 2 2 1 1 1 1 1 1 1 1 0 1 1 1 1
12 10 11 10 8 8 8 8 8 8 8 6 5 5 4 4 4 3 3 3 3 2 2 2 2 2 1 1 1 2 2 2 2 1 1 1 2 1 10 7 7 8 7 2
9 8 8 8 8 7 8 8 7 8 7 7 5 4 4 4 4 3 2 3 3 3 2 2 2 2 1 2 1 1 2 2 1 2 1 2 2 2 2 4 9 9 9 8
8 7 8 8 9 7 7 7 7 7 7 6 6 4 4 4 3 3 3 2 2 2 2 2 3 2 2 2 1 1 1 5 1 1 1 1 1 2 1 2 2 2 8 6
8 7 8 7 8 7 7 7 8 8 8 7 6 5 4 4 4 3 2 2 2 2 2 2 3 2 2 2 1 1 2 1 1 1 1 1 1 1 1 1 2 1 1 7
8 8 8 8 7 7 8 7 8 8 8 8 7 6 5 3 3 3 2 2 3 3 2 2 3 2 2 2 1 1 1 5 3 1 1 1 1 2 2 2 2 2 2 1
8 10 9 9 8 8 8 7 7 7 8 8 7 6 5 4 3 3 3 2 2 2 2 2 2 2 2 2 1 2 2 2 6 2 2 1 1 2 1 2 2 2 1 1
6 7 8 8 8 8 8 8 7 6 7 7 7 7 5 5 5 4 3 3 2 2 2 1 1 2 2 2 2 2 2 3 3 3 2 2 2 1 1 1 2 2 1 1
5 6 6 7 7 7 7 7 7 6 6 6 6 7 6 5 5 3 3 3 3 3 3 1 7 4 1 3 3 2 3 3 4 3 3 6 3 2 1 1 1 1 1 1
5 5 5 5 5 6 6 6 6 6 6 6 6 6 7 6 5 4 3 3 3 2 2 1 1 1 1 3 8 2 3 3 3 3 3 3 3 3 2 5 1 1 1 1
5 5 5 5 5 5 4 5 6 6 6 6 6 6 7 6 5 5 3 4 2 2 3 6 2 1 1 4 4 2 3 3 3 3 3 3 3 3 2 2 2 2 1 1
5 5 5 5 5 5 3 3 5 6 6 6 6 5 6 6 4 5 4 3 2 14 4 1 1 8 4 13 2 2 3 3 3 3 2 3 3 3 3 3 3 3 2 1
4 4 4 4 5 5 5 4 3 4 5 6 6 5 5 5 4 5 6 3 2 7 3 1 9 15 16 3 2 2 3 3 3 3 3 2 3 3 3 3 3 3 3 2
4 4 4 4 4 5 5 5 4 4 3 3 4 5 5 5 3 2 1 6 12 11 4 3 9 15 16 2 2 2 2 2 3 2 2 8 2 2 3 3 3 3 2 4
3 4 4 4 5 4 4 4 5 5 4 4 3 3 3 4 4 3 3 3 12 9 2 13 15 15 2 1 1 2 2 3 3 2 2 2 3 3 2 3 2 2 2 2
3 3 3 3 4 3 4 4 5 5 6 7 6 4 3 3 4 4 3 6 3 7 2 1 1 1 2 2 2 2 2 3 4 5 3 2 2 3 3 3 3 3 3 3
3 5 3 3 3 3 4 5 5 6 6 7 7 5 3 3 3 6 8 3 2 2 1 1 1 4 1 1 1 1 2 3 6 3 3 3 3 2 3 4 5 5 5 5

GFSNGP_con_lsi_024.txt.gz
Lid_Strength_Index
10 9 10 9 9 8 9 8 10 10 10 7 6 5 5 5 5 5 4 4 4 3 3 2 2 2 1 1 1 1 1 1 1 1 0 0 0 0 0 -0 0 0 0 0
11 10 10 10 9 8 8 8 8 9 9 6 5 5 5 5 5 5 5 4 4 3 3 3 2 2 1 1 1 1 1 1 1 1 1 1 0 0 0 0 0 0 0 0
13 9 10 12 9 9 8 7 7 10 7 5 6 6 5 5 5 5 4 4 4 3 3 2 2 1 2 1 1 1 1 1 1 1 1 1 0 1 1 1 0 0 1 0
12 10 16 10 6 7 8 7 7 7 6 6 6 5 4 4 4 4 4 4 3 3 2 2 1 1 1 1 1 1 1 1 1 1 1 1 1 1 1 0 1 1 1 1
13 13 11 10 9 9 8 10 7 7 6 6 5 5 5 3 3 3 3 3 2 2 2 2 1 1 1 1 1 1 1 1 1 1 1 1 1 1 1 1 1 1 1 1
12 15 16 12 8 6 7 12 7 7 7 7 6 9 6 4 3 3 2 2 2 2 2 2 1 1 1 2 1 1 1 1 1 1 1 1 1 1 0 0 1 1 1 1
14 14 13 9 7 6 13 12 6 6 6 6 7 6 5 3 3 3 2 2 2 2 2 2 1 1 2 1 2 1 1 0 1 0 0 0 0 0 1 1 1 1 1 1
14 14 17 7 7 11 8 6 6 5 5 6 5 5 4 4 3 3 3 2 2 2 2 1 1 1 2 2 1 0 0 1 1 0 0 1 0 0 1 1 1 1 1 1
13 14 8 6 7 5 5 6 5 5 5 5 5 5 4 4 3 3 3 2 2 2 2 2 1 1 2 1 1 1 1 1 1 1 0 0 1 1 1 1 1 2 2 2
11 10 9 8 6 6 5 6 5 4 4 4 5 4 4 4 3 3 3 2 2 2 2 2 1 1 1 1 1 1 1 1 1 1 1 0 1 1 1 1 1 1 2 2
10 9 8 8 8 7 6 6 5 4 4 4 4 4 4 4 3 3 3 2 2 2 2 2 1 1 1 1 1 1 1 1 1 1 1 1 1 1 1 -0 1 1 1 1
12 8 9 9 7 7 7 7 6 5 5 3 3 4 4 4 3 3 3 2 2 2 2 2 2 1 1 1 1 1 1 1 1 1 1 1 1 1 10 7 6 7 7 4
8 7 6 6 6 6 7 6 6 6 5 5 3 3 3 4 3 4 3 2 2 2 2 2 2 1 1 1 1 1 1 1 1 2 1 1 1 2 2 3 8 8 8 8
6 6 7 6 7 6 6 5 5 5 4 5 4 3 3 3 3 3 3 2 2 2 2 2 2 2 1 1 1 1 1 6 1 1 1 1 1 1 1 2 2 1 7 5
7 6 6 6 6 6 6 6 6 6 5 5 5 5 4 3 3 3 2 2 1 2 2 2 2 1 1 1 1 1 1 1 1 1 1 1 1 1 1 1 1 1 1 6
6 6 6 6 6 6 6 5 6 6 6 5 5 5 5 3 2 3 2 2 2 2 2 2 2 1 1 1 1 1 1 5 3 1 1 1 1 1 1 1 1 1 1 1
7 7 6 7 6 6 5 5 5 5 6 6 5 5 4 4 3 3 3 2 2 2 1 1 1 1 1 1 1 1 1 1 4 1 1 1 1 1 1 1 1 1 1 1
5 5 5 5 6 5 5 5 5 5 5 5 5 5 5 5 4 3 3 2 2 2 1 1 1 1 1 1 1 1 1 1 1 1 1 1 1 1 1 1 1 1 1 1
4 4 4 4 4 4 4 4 4 4 4 4 5 5 5 4 4 3 2 3 3 3 2 1 7 4 1 1 2 1 1 1 1 1 1 4 1 1 1 1 1 1 1 1
4 4 4 4 4 4 4 4 4 4 4 4 5 5 5 4 4 4 3 3 2 2 1 1 1 1 1 2 8 1 1 1 1 1 1 1 1 1 1 5 1 1 1 1
3 4 4 4 5 4 5 4 4 4 4 4 4 6 5 4 4 4 4 3 2 2 2 5 1 1 1 2 3 1 1 1 1 1 2 2 1 1 1 1 1 1 1 1
4 4 4 4 4 4 4 5 5 5 4 4 4 4 5 5 4 4 4 4 2 13 3 1 1 10 4 13 1 1 1 1 1 1 1 1 1 1 1 1 1 1 1 1
3 4 3 4 4 4 4 5 5 6 5 3 3 3 4 4 4 5 5 3 3 8 3 2 9 15 15 3 1 1 1 1 1 1 1 1 1 1 1 1 1 1 1 1
3 3 4 3 3 3 5 5 4 4 5 5 5 4 3 3 3 2 2 7 12 9 5 4 7 14 16 1 1 1 1 1 1 1 1 6 1 2 2 1 1 1 1 2
2 2 2 3 4 4 3 3 4 5 4 5 5 5 4 2 2 2 2 2 11 7 2 11 13 15 4 1 1 1 1 1 1 1 1 2 2 2 1 1 1 1 1 1
2 3 2 2 3 2 3 3 4 4 6 7 7 6 5 4 2 3 2 5 2 6 3 3 1 1 1 1 1 1 1 1 1 1 1 1 1 1 1 1 1 1 1 1
2 4 2 2 2 3 2 3 4 5 6 6 7 7 7 5 3 3 5 2 2 2 2 2 3 3 1 2 1 1 1 1 3 1 1 1 1 1 1 1 1 1 1 2

GFSNGP_con_lsi_030.txt.gz
Lid_Strength_Index
11 11 12 13 12 9 9 9 11 10 9 7 7 7 6 6 5 5 5 5 4 4 4 3 3 2 2 2 2 1 2 2 2 2 1 1 1 1 0 1 1 1 1 1
13 10 12 14 11 10 8 9 8 9 8 6 6 6 6 6 5 6 5 5 4 4 3 3 3 3 2 2 2 1 2 2 2 2 1 1 1 1 1 1 1 1 1 1
16 11 13 15 11 10 8 8 8 10 8 6 6 6 6 6 5 5 5 4 4 4 3 3 3 2 2 2 1 2 2 2 2 2 2 2 1 1 1 1 1 1 1 1
15 14 20 11 7 7 8 7 7 7 7 6 5 6 5 5 5 5 4 4 4 3 3 3 2 2 2 2 2 2 2 2 2 2 2 1 2 2 1 1 1 1 1 1
16 17 14 12 10 11 9 10 8 7 6 6 5 6 6 5 4 4 4 4 3 3 3 2 2 2 2 2 2 2 2 2 2 1 2 2 2 2 1 1 1 2 1 1
14 19 20 14 9 7 7 14 7 7 7 7 6 9 8 5 4 4 3 3 3 2 2 2 2 2 2 2 2 2 2 2 1 1 2 2 2 2 1 1 1 1 2 1
14 16 15 10 8 6 15 14 7 6 6 7 8 7 5 4 4 3 3 3 2 2 3 2 2 2 2 2 2 2 1 1 1 1 2 1 1 1 1 1 1 2 2 1
14 15 19 9 8 13 10 8 7 6 6 6 5 5 5 4 4 3 3 3 2 3 3 2 2 2 2 3 1 1 1 1 1 1 1 1 2 1 1 2 2 2 2 2
14 14 9 8 8 7 6 6 6 5 5 5 5 5 4 4 4 3 3 3 2 3 3 2 2 2 2 2 1 1 1 2 2 1 1 1 2 2 2 2 2 3 3 3
12 10 9 8 7 6 6 6 5 4 4 4 5 4 4 4 4 3 3 3 2 3 3 3 2 2 2 1 1 1 2 2 2 2 2 1 1 2 2 2 2 3 3 3
11 9 8 8 7 7 6 5 4 4 4 4 4 4 4 4 4 3 3 2 2 3 3 3 2 2 1 1 1 2 2 2 2 2 2 2 1 1 2 4 3 2 2 2
12 7 8 8 7 5 5 5 4 4 4 3 3 4 3 4 3 3 3 2 3 2 3 2 2 2 1 1 1 2 2 2 2 2 2 2 2 2 12 10 11 11 11 3
7 5 6 5 5 6 6 5 4 4 4 4 3 3 3 3 3 4 3 3 3 2 2 2 2 2 1 1 1 2 2 2 2 2 2 2 2 2 3 6 11 10 10 9
5 5 6 6 6 5 5 5 4 3 3 3 3 3 3 3 3 3 3 2 2 2 2 2 2 2 1 1 1 2 2 6 2 2 2 2 2 2 2 2 3 2 8 6
5 5 5 5 4 4 5 5 5 4 3 4 3 3 4 3 3 3 2 2 2 2 2 2 2 2 1 1 1 2 2 2 1 1 1 2 2 2 2 2 2 2 3 6
5 5 5 5 5 5 5 5 6 5 4 3 4 3 4 3 3 2 2 2 3 3 2 2 2 2 1 1 1 1 1 5 4 2 2 2 2 2 2 2 2 2 2 2
7 7 6 6 5 5 5 4 5 5 4 4 3 3 4 4 3 3 3 2 2 2 2 2 2 1 1 1 1 1 2 2 5 2 2 2 2 2 2 2 2 2 2 2
5 5 4 5 6 5 5 4 4 4 4 3 3 4 4 4 4 3 3 3 2 2 2 2 2 2 1 1 1 1 1 2 2 2 2 2 2 2 2 2 2 2 2 3
3 4 4 5 5 5 5 5 4 4 3 3 3 3 4 4 3 3 2 3 3 3 3 1 8 3 2 2 3 1 1 2 2 2 2 4 2 2 2 2 2 2 2 3
3 3 4 5 5 6 6 5 5 5 4 4 3 3 3 4 4 4 3 3 3 3 2 2 2 2 1 2 9 1 1 2 2 2 2 2 2 2 2 5 2 2 2 2
4 3 4 4 4 4 5 5 6 6 5 4 4 4 4 3 3 4 3 3 2 2 3 5 2 5 3 6 4 2 1 2 2 2 2 2 2 2 2 2 2 2 2 1
4 3 3 3 4 4 4 4 5 6 6 6 6 6 5 4 4 3 2 3 2 12 3 2 3 12 8 13 1 1 1 1 2 2 2 2 2 2 2 2 2 2 1 1
3 3 3 4 3 4 4 4 5 5 6 7 7 7 7 7 5 5 5 3 3 7 3 2 11 15 14 4 1 1 2 2 2 2 2 2 2 2 2 2 2 1 1 1
2 2 3 3 2 3 4 4 4 4 5 6 6 7 7 8 8 6 5 7 10 8 4 4 7 14 15 3 2 1 2 2 2 1 1 7 1 1 1 1 2 1 1 3
2 2 2 2 4 4 3 3 4 4 5 6 6 6 7 6 8 8 7 6 8 6 3 8 12 14 5 3 2 1 1 1 1 1 1 1 1 1 1 1 1 1 1 1
2 3 2 2 2 2 3 4 4 4 5 6 6 7 7 7 7 8 9 9 6 7 3 3 3 3 3 2 2 1 1 1 2 1 2 2 1 1 1 1 1 1 1 1
3 5 3 2 2 2 2 3 4 5 5 5 6 6 6 7 8 9 11 9 9 8 6 5 5 6 5 4 2 1 1 1 4 1 1 1 1 1 1 1 1 1 1 1

GFSNGP_con_lsi_033.txt.gz
Lid_Strength_Index
12 12 11 12 12 12 13 13 13 11 11 10 8 9 7 7 6 6 6 6 5 5 5 4 4 4 3 3 3 2 2 2 2 2 2 2 2 2 2 1 1 1 1 2
14 11 11 13 11 11 12 11 12 11 12 7 8 7 7 7 6 7 6 6 5 5 4 4 4 4 3 3 3 2 3 2 2 2 2 2 2 2 2 1 1 1 2 2
17 12 13 16 12 12 11 10 10 13 10 8 9 8 8 7 6 6 6 5 5 5 4 4 4 3 3 3 3 2 3 2 2 2 2 2 2 2 2 2 2 2 2 2
17 15 21 12 9 10 11 9 10 8 9 8 8 7 7 6 6 6 5 5 5 4 4 4 4 3 3 3 3 3 3 2 2 2 2 2 2 2 2 2 3 2 3 3
18 18 15 13 11 12 13 13 10 9 9 9 7 7 8 6 5 6 5 4 4 3 4 5 4 3 3 3 3 3 3 3 2 2 2 2 2 2 2 2 2 2 2 3
16 19 21 14 10 9 9 16 9 9 8 9 8 12 10 6 5 5 4 4 4 3 4 4 4 3 3 4 3 4 3 2 2 2 2 2 2 2 3 2 2 2 2 2
16 17 15 11 9 8 16 15 9 8 8 8 10 8 7 6 5 5 4 4 3 3 4 4 3 3 4 4 4 3 2 2 2 2 2 2 2 2 2 3 2 3 2 3
15 17 19 10 10 13 10 8 8 7 7 7 7 6 6 5 5 5 4 4 3 3 4 4 3 3 4 4 3 3 2 2 2 2 2 2 2 2 2 2 3 3 2 3
13 14 9 8 9 8 8 8 8 7 6 6 6 6 6 6 5 4 4 4 3 3 4 4 3 2 3 3 3 3 2 2 2 2 2 2 2 3 2 3 3 3 3 3
12 10 9 8 8 8 7 7 7 6 6 5 6 6 6 5 5 5 4 4 4 4 4 4 4 2 2 2 2 3 3 3 3 3 2 2 2 2 2 3 3 3 3 3
11 9 8 7 7 7 7 7 6 6 6 6 6 6 6 6 6 5 4 4 3 4 4 4 4 3 2 2 2 3 2 3 2 2 3 3 4 4 2 3 3 3 3 2
12 8 8 8 6 6 7 7 7 6 6 5 4 5 5 6 6 5 5 4 4 4 4 4 4 2 2 2 2 2 3 3 3 3 2 3 7 8 13 12 12 9 7 3
8 6 6 6 6 6 7 7 6 6 5 5 4 4 5 6 5 6 4 3 4 4 3 4 4 4 2 2 2 2 3 3 3 3 2 3 4 6 7 7 12 12 9 9
5 6 7 6 7 6 6 6 6 5 4 4 4 4 4 5 5 5 4 4 3 3 3 3 4 4 3 2 2 2 3 7 3 3 3 3 3 4 5 5 6 6 10 9
6 6 5 5 5 5 5 6 7 6 5 4 4 4 4 5 5 4 4 4 3 3 3 3 4 4 4 3 2 2 2 2 2 3 3 4 3 3 3 3 4 5 7 10
5 5 5 5 5 5 5 5 5 5 4 4 4 5 5 4 5 4 5 5 5 4 3 3 3 3 4 4 3 2 2 6 5 2 4 3 3 3 3 4 4 4 4 4
7 7 6 6 6 5 5 5 5 5 4 4 4 4 5 4 4 4 4 5 4 4 3 4 4 2 3 4 4 3 2 4 7 3 3 3 4 3 3 3 4 5 4 3
6 6 5 5 5 5 5 5 5 5 5 4 4 3 4 5 5 5 5 3 3 4 4 3 5 2 2 4 4 3 3 2 3 3 3 3 3 4 3 4 4 4 5 5
5 5 4 5 5 5 5 6 5 6 5 5 5 4 4 4 5 5 5 4 4 5 5 4 9 5 4 7 7 3 3 3 3 3 3 6 5 3 3 3 3 3 4 5
4 4 4 4 5 5 6 5 5 6 6 6 6 6 6 6 5 5 5 4 3 4 5 5 6 6 5 8 11 4 3 2 3 3 3 3 4 4 3 6 3 3 3 4
4 4 4 4 5 5 6 6 6 7 7 6 7 7 7 7 7 7 6 8 7 7 8 8 6 8 6 10 7 3 3 3 3 3 3 4 4 4 4 4 3 3 3 4
4 5 5 4 4 5 5 6 6 7 7 7 7 8 8 8 8 7 7 8 8 12 8 6 6 14 12 13 5 3 3 2 3 3 3 3 4 4 5 5 4 3 3 3
4 4 4 4 4 4 4 4 6 7 7 7 7 8 8 8 8 10 10 8 8 9 8 5 10 13 15 7 6 4 2 2 3 3 4 4 4 4 4 5 4 4 4 4
3 3 3 4 4 4 6 6 5 6 6 7 8 8 8 9 9 9 9 10 12 11 8 10 11 13 14 6 5 5 3 3 3 3 3 8 4 3 4 4 5 4 5 7
3 3 3 4 5 6 6 5 6 6 7 7 8 7 8 8 9 9 9 10 11 10 7 11 12 12 7 7 5 4 4 3 4 4 3 3 3 3 3 3 3 4 4 3
3 4 4 3 4 4 6 6 6 7 7 7 8 8 8 8 9 10 10 11 11 11 10 9 10 10 9 9 8 6 6 4 5 3 4 4 3 3 3 3 3 4 4 4
4 4 3 3 3 4 4 6 7 7 7 7 8 7 8 9 9 10 11 11 12 12 11 11 11 12 11 11 10 9 9 8 11 9 9 9 9 9 8 5 3 3 3 3

GFSNGP_con_lsi_036.txt.gz
Lid_Strength_Index
12 12 11 12 12 12 13 13 16 13 13 13 11 10 8 7 7 7 7 6 6 5 5 4 4 4 4 3 3 2 2 2 3 3 3 2 2 2 2 1 1 1 2 2
14 12 12 13 11 11 12 11 12 12 13 10 9 7 7 7 7 7 7 6 5 5 5 4 4 4 4 3 4 2 2 3 2 2 2 2 2 2 1 1 1 2 2 2
17 13 13 16 13 12 11 10 11 14 11 9 8 9 9 8 7 7 6 6 5 5 4 4 4 4 4 4 2 3 3 2 2 2 2 2 2 2 2 2 2 3 3 3
17 15 20 13 10 10 12 10 10 11 10 9 9 8 7 7 7 6 6 5 5 4 4 4 4 4 4 3 3 3 3 2 2 2 2 2 2 3 3 3 3 3 4 4
18 18 15 13 11 12 13 13 10 11 9 9 8 8 8 6 6 6 5 4 4 3 4 4 4 4 3 3 3 3 3 3 2 2 2 2 2 3 3 3 4 4 4 4
16 19 21 14 11 8 9 16 9 9 9 9 8 12 10 6 5 5 4 4 4 4 4 5 5 3 4 4 3 3 3 2 2 2 2 3 3 3 3 3 2 2 4 3
16 17 15 11 10 8 16 15 9 8 9 9 10 9 7 5 5 5 4 4 3 4 5 5 4 3 4 4 4 3 2 2 2 2 2 2 3 3 3 3 3 3 3 3
15 17 19 10 10 13 10 9 8 8 7 8 7 6 6 6 5 5 5 4 4 5 5 5 4 3 4 4 3 3 2 2 3 2 2 2 3 3 3 3 3 3 4 4
14 14 11 9 9 8 7 9 8 8 7 6 7 6 6 6 6 5 5 4 4 5 5 5 4 3 4 4 4 2 3 3 2 2 2 2 3 3 3 4 4 4 3 3
12 10 9 9 8 7 7 8 8 8 7 6 7 7 7 6 5 5 4 4 4 5 5 5 4 3 3 4 3 2 3 3 2 2 3 3 2 3 3 3 3 3 3 3
11 9 9 8 8 8 8 8 8 7 7 7 7 7 7 7 6 5 4 4 4 4 5 5 5 3 3 3 2 3 3 3 3 2 2 3 4 4 2 3 3 3 3 2
13 9 10 9 8 8 8 8 8 8 7 7 6 7 7 6 6 5 4 4 4 4 4 4 5 3 2 3 2 2 3 3 3 3 3 3 5 7 12 11 12 11 7 4
8 6 7 7 7 7 7 7 7 7 6 7 6 6 7 7 6 6 5 4 4 4 4 4 4 4 2 3 2 2 3 3 3 3 3 5 6 6 7 9 13 13 11 9
5 6 7 7 8 7 6 6 6 6 6 6 6 5 6 7 6 5 6 5 5 3 3 4 4 4 3 3 2 2 3 7 3 3 3 4 6 7 7 6 4 5 11 10
6 5 5 5 4 5 6 6 6 7 6 6 6 5 6 6 6 6 5 4 4 3 4 4 4 4 3 4 2 2 2 3 2 2 3 4 5 6 6 5 5 5 8 10
5 5 5 5 5 5 6 7 7 7 6 6 5 5 5 6 6 5 5 4 4 5 4 4 4 4 4 4 4 2 2 5 5 3 3 3 4 5 5 6 5 6 5 5
8 7 6 7 6 6 7 6 6 6 6 6 6 5 5 5 5 6 5 4 4 4 5 5 5 3 3 4 3 3 2 4 7 3 3 3 3 4 4 5 5 5 4 6
5 5 6 6 7 7 7 6 6 6 7 6 5 5 6 7 7 7 5 4 6 6 6 6 7 7 5 6 5 4 4 3 3 3 3 3 3 3 4 4 4 5 5 6
5 5 4 4 5 7 7 7 7 7 7 7 7 7 7 7 8 7 6 8 8 9 9 6 9 8 7 9 10 5 4 4 3 3 3 6 5 4 3 3 4 4 5 5
4 4 4 4 5 7 7 7 6 7 7 8 8 8 8 8 8 8 7 8 9 8 9 8 7 8 7 8 10 4 4 4 4 4 4 5 4 4 3 7 3 4 4 5
4 4 5 5 5 6 7 7 7 7 7 8 9 9 9 8 8 9 9 10 10 9 9 9 9 9 9 11 8 4 3 3 3 4 4 5 5 6 5 4 4 3 3 4
4 4 5 5 5 6 7 7 7 8 8 8 9 9 9 9 9 9 9 11 11 14 10 8 9 12 11 12 6 6 3 2 3 4 4 4 4 5 5 5 5 4 3 2
4 4 4 5 5 6 6 7 7 8 8 9 9 9 9 10 10 11 11 10 10 13 9 10 14 15 13 6 5 5 5 3 3 3 3 4 4 4 4 5 5 4 4 5
4 4 4 5 6 6 7 8 7 8 8 9 9 9 9 10 10 10 10 12 13 13 11 13 14 15 12 8 7 6 7 6 5 3 3 8 3 4 4 4 5 5 5 7
4 3 3 5 6 7 7 8 8 7 8 9 9 9 9 9 10 11 11 11 13 12 11 13 14 14 10 10 9 9 9 11 10 8 8 8 8 7 6 5 4 4 5 5
4 4 4 4 5 6 7 8 9 8 9 9 9 9 9 10 10 10 11 12 11 12 11 11 12 11 11 11 11 11 11 12 12 11 11 11 11 11 10 9 8 7 7 5
5 6 5 5 5 6 6 7 8 9 9 9 10 9 10 10 10 11 12 11 12 12 12 12 12 12 12 12 12 12 12 12 14 13 12 13 13 12 11 11 10 10 9 10